Simultaneous Nadir Overpasses (SNOs) Predictions

Prediction of SNOs between METOP-A and NOAA-19 Satellite Orbit:

Table of predicted SNOs for the next 14.0 days since TLE Epoch: 10/12/2018
Index Date (METOP-A) Time (METOP-A) Lat,Lon (METOP-A) SZA (METOP-A ) Date (NOAA-19) Time (NOAA-19) Lat,Lon (NOAA-19) SZA (NOAA-19 ) Distance(km) Time Diff (sec)
1 10/19/2018 09:14:45 -79.06,-128.26 90.65 10/19/2018 09:13:32 -79.06,-129.26 90.72 21.02 73
2 10/19/2018 10:05:27 79.01, 38.68 89.29 10/19/2018 10:04:25 78.98, 38.68 89.25 3.51 62
3 10/19/2018 10:56:09 -78.97,-154.23 90.75 10/19/2018 10:55:31 -78.99,-154.23 90.73 2.57 38
4 10/19/2018 11:46:49 78.99, 13.20 89.29 10/19/2018 11:46:26 78.97, 13.19 89.27 1.32 23
5 10/19/2018 12:37:30 -78.99,-179.47 90.70 10/19/2018 12:37:31 -78.96,-179.47 90.73 2.93 1
6 10/19/2018 13:28:11 78.96, -12.28 89.29 10/19/2018 13:28:27 78.97, -12.31 89.30 1.11 16
7 10/19/2018 14:18:52 -78.96, 155.05 90.70 10/19/2018 14:19:32 -78.96, 155.04 90.70 0.75 40
8 10/19/2018 15:09:33 78.94, -37.76 89.29 10/19/2018 15:10:28 78.97, -37.80 89.32 3.31 55




NCC Satellite Simultaneous Nadir Overpasses (SNOs) Prediction Service
